Location: Bishop�s Knoyle
(51.0728°N, 2.1714°W)
Time: 14:33:03
(UTC+00:00)

NOSS 3-4 (C) - Pass Details

Date: 17 January 2021
Orbit: 878 x 1335 km, 63.4° (Epoch: 16 February)

Event Time Altitude Azimuth Distance (km) Brightness Sun altitude
Rises 18:16:00 0° 242° (WSW) 3,488 8.0 -15.4°
Reaches altitude 10° 18:18:29 10° 247° (WSW) 2,576 7.0 -15.8°
Maximum altitude 18:24:19 54° 325° (NW) 1,140 4.0 -16.7°
Enters shadow 18:29:13 17° 38° (NE) 2,291 5.0 -17.4°
